[[{"header":{"parameterUnit":"m.s-1","parameterCategory":1,"la1":30.2991,"la2":30.254,"lo1":-89.0895,"lo2":-89.0444,"dy":0.0017,"dx":0.0017,"nx":28,"ny":28,"refTime":"2025-08-05T21:00:00:Z","depth":0,"parameterNumber":2,"parameterNumberName":"U-component_of_WINDS"},"data":[0,0,0,0,0,0,0,0,0,0,0,0,0,0,0,0,0,0,0,0,0,0,0,0,0,0,0,0,0,0,0,0,0,0,0,0,0,0,0,0,0,0,0,0,0,0,0,0,0,0,0,0,0,0,0,0,0,0,-1.7002,-1.7002,0,-1.7031,-1.7031,-1.7032,-1.6942,-1.694,-1.6937,-1.6934,-1.6969,-1.6972,-1.6976,0,0,0,0,0,0,0,0,0,0,0,0,0,-1.6875,-1.6878,-1.7002,-1.7002,-1.7002,-1.7031,-1.7031,-1.7032,-1.6943,-1.694,-1.6936,-1.6933,-1.6968,-1.6972,-1.6976,0,0,0,0,0,0,0,0,0,0,0,0,0,-1.692,-1.6878,-1.7002,-1.6961,-1.6958,-1.7031,-1.7031,-1.7032,-1.6944,-1.6939,-1.6935,-1.6932,-1.6966,-1.6971,-1.6977,-1.7091,0,0,-1.6992,-1.6995,0,0,0,0,0,0,0,0,-1.6917,-1.6924,-1.6967,-1.6964,-1.6961,-1.6979,-1.6999,-1.7052,-1.6945,-1.6949,-1.6934,-1.693,-1.6976,-1.698,-1.6994,-1.7092,-1.7094,-1.6993,-1.6996,-1.6998,-1.7,0,0,0,0,0,0,0,-1.6914,-1.6923,-1.7013,-1.6968,-1.6964,-1.6944,-1.6946,-1.7009,-1.6985,-1.6949,-1.6942,-1.6947,-1.6973,-1.699,-1.6995,-1.7094,-1.6993,-1.6997,-1.7001,-1.7003,-1.7291,-1.7295,0,0,0,0,0,0,-1.6916,-1.6921,-1.7012,-1.7014,-1.6928,-1.6949,-1.6951,-1.6977,-1.6984,-1.6981,-1.695,-1.6942,-1.6983,-1.6989,-1.6996,-1.7132,-1.6998,-1.7003,-1.7006,-1.7286,-1.7292,-1.7297,0,0,0,0,0,0,-1.6913,-1.6925,-1.7011,-1.6966,-1.6975,-1.6956,-1.6986,-1.698,-1.6996,-1.6985,-1.6981,-1.6971,-1.698,-1.6988,-1.7068,-1.7132,-1.7005,-1.701,-1.7281,-1.7288,-1.7294,-1.7404,0,0,0,0,0,0,-1.691,-1.6924,-1.6966,-1.6967,-1.6978,-1.7082,-1.6989,-1.6983,-1.7005,-1.6995,-1.7004,-1.7001,-1.6977,-1.7061,-1.7073,-1.7137,-1.7014,-1.7275,-1.7284,-1.7292,-1.7395,-1.7414,-1.743,0,0,0,0,0,-1.6906,-1.6996,-1.6968,-1.698,-1.7029,-1.7085,-1.7092,-1.7061,-1.701,-1.7053,-1.7047,-1.7001,-1.7123,-1.707,-1.7083,-1.7149,-1.7271,-1.7282,-1.7292,-1.7387,-1.741,-1.743,0,0,0,0,0,0,-1.7003,-1.6995,-1.6965,-1.7058,-1.7073,-1.707,-1.7123,-1.7086,-1.7117,-1.7107,-1.7069,-1.7072,-1.7159,-1.7162,-1.7103,-1.7262,-1.7189,-1.7202,-1.7257,-1.7279,-1.7296,-1.7294,-1.7019,0,0,0,0,0,-1.7036,-1.708,-1.7071,-1.7154,-1.7164,-1.7143,-1.7166,-1.7141,-1.7156,-1.7162,-1.7161,-1.7179,-1.7221,-1.725,-1.7288,-1.7395,-1.7397,-1.7447,-1.7465,-1.7479,-1.7492,-1.7552,-1.7575,-1.733,-1.733,-1.733,0,0,-1.7103,-1.7104,-1.7135,-1.7174,-1.7183,-1.7232,-1.7148,-1.7203,-1.724,-1.7171,-1.7246,-1.7247,-1.7264,-1.7359,-1.74,-1.7364,-1.756,-1.7492,-1.7504,-1.7509,-1.7565,-1.7588,-1.7608,-1.7337,-1.7336,-1.7335,0,0,-1.7251,-1.7255,-1.7326,-1.7337,-1.7351,-1.7337,-1.7354,-1.7358,-1.7355,-1.743,-1.738,-1.7424,-1.7497,-1.7512,-1.753,-1.7687,-1.7647,-1.7701,-1.7794,-1.7853,-1.7872,-1.7889,-1.7947,-1.7968,-1.7713,-1.7713,-1.7713,0,-1.7333,-1.7403,-1.7367,-1.7427,-1.7447,-1.7385,-1.7458,-1.7471,-1.7498,-1.7515,-1.7473,-1.7565,-1.7572,-1.7671,-1.7709,-1.7725,-1.7746,-1.77,-1.7872,-1.7888,-1.7904,-1.7959,-1.7981,-1.772,-1.7719,-1.7718,-1.7718,0,-1.7505,-1.7555,-1.7611,-1.7638,-1.7664,-1.773,-1.7706,-1.7738,-1.7712,-1.7703,-1.7782,-1.7789,-1.7829,-1.785,-1.7825,-1.7947,-1.7924,-1.7877,-1.7803,-1.7934,-1.7986,-1.8006,-1.7729,-1.7727,-1.7725,-1.7723,0,0,-1.7714,-1.7722,-1.7743,-1.7756,-1.7768,-1.7807,-1.7872,-1.791,-1.7939,-1.796,-1.8015,-1.808,-1.8038,-1.8058,-1.8034,-1.8086,-1.8213,-1.8033,-1.8033,-1.8068,-1.8351,-1.8387,-1.8412,-1.8187,-1.819,-1.8194,-1.8351,0,-1.7861,-1.797,-1.7941,-1.8051,-1.8098,-1.8042,-1.8099,-1.8114,-1.8108,-1.815,-1.8144,-1.8191,-1.813,-1.8143,-1.8191,-1.8187,-1.827,-1.8175,-1.824,-1.8243,-1.8239,-1.8439,-1.8476,-1.8624,-1.837,-1.8374,-1.8376,0,-1.8047,-1.8075,-1.819,-1.8197,-1.8216,-1.8267,-1.8301,-1.834,-1.8358,-1.8351,-1.8374,-1.8341,-1.8408,-1.8333,-1.8426,-1.8363,-1.8388,-1.8391,-1.8396,-1.8402,-1.8318,-1.8452,-1.867,-1.8693,-1.8407,-1.8405,-1.8402,0,-1.8191,-1.8258,-1.8335,-1.8348,-1.8358,-1.8396,-1.8402,-1.8415,-1.8441,-1.8471,-1.8488,-1.8527,-1.8548,-1.858,-1.856,-1.8507,-1.8658,-1.858,-1.8656,-1.8657,-1.869,-1.8689,-1.8918,-1.8704,-1.8704,-1.8704,-1.8703,0,-1.8359,-1.8432,-1.84,-1.8448,-1.8529,-1.8497,-1.8578,-1.8578,-1.8591,-1.864,-1.8594,-1.8642,-1.8611,-1.8657,-1.8641,-1.8723,-1.8732,-1.873,-1.8726,-1.8735,-1.8736,-1.8752,-1.8742,-1.8709,-1.8708,-1.8707,-1.8706,0,-1.8533,-1.8515,-1.8596,-1.8599,-1.8602,-1.8662,-1.8666,-1.8712,-1.8703,-1.8766,-1.8779,-1.8766,-1.8818,-1.8801,-1.8856,-1.8846,-1.895,-1.8932,-1.8944,-1.894,-1.9017,-1.9011,-1.9265,-1.9298,-1.9063,-1.9065,-1.9067,0,-1.8642,-1.8697,-1.8706,-1.8735,-1.8744,-1.8792,-1.8818,-1.8789,-1.8818,-1.8844,-1.8888,-1.8936,-1.8972,-1.9059,-1.9056,-1.91,-1.9083,-1.9169,-1.9089,-1.9098,-1.9087,-1.9084,-1.9091,-1.9185,-1.9188,-1.919,-1.9192,0,-1.8838,-1.8827,-1.8865,-1.8902,-1.8935,-1.8963,-1.8986,-1.9014,-1.8986,-1.9023,-1.9074,-1.9103,-1.9161,-1.921,-1.925,-1.9258,-1.9223,-1.9217,-1.9237,-1.9248,-1.9254,-1.9254,-1.899,-1.9211,-1.921,-1.9208,-1.9207,-1.9206,-1.8984,-1.9031,-1.9046,-1.9091,-1.9106,-1.9131,-1.9175,-1.9172,-1.9214,-1.9258,-1.9239,-1.93,-1.932,-1.9369,-1.9384,-1.9433,-1.94,-1.9429,-1.9436,-1.9444,-1.9455,-1.9245,-1.944,-1.944,-1.9439,-1.9439,-1.9438,0,-1.9179,-1.9186,-1.9229,-1.9264,-1.9301,-1.9262,-1.9287,-1.9321,-1.9375,-1.9396,-1.9433,-1.9495,-1.9543,-1.9545,-1.9591,-1.963,-1.9615,-1.9644,-1.9641,-1.9645,-1.9481,-1.946,-1.9655,-1.9655,-1.9655,-1.9655,-1.9655,-1.9655,-1.9285,-1.9364,-1.9355,-1.9442,-1.9449,-1.9507,-1.9526,-1.9549,-1.9565,-1.9636,-1.9676,-1.9676,-1.9691,-1.9737,-1.9781,-1.9781,-1.9801,-1.9836,-1.983,-1.9677,-1.9656,-1.9635,-1.9615,-1.984,-1.9841,-1.999,-1.9991,-1.9992]},{"header":{"parameterUnit":"m.s-1","parameterCategory":1,"la1":30.2991,"la2":30.254,"lo1":-89.0895,"lo2":-89.0444,"dy":0.0017,"dx":0.0017,"nx":28,"ny":28,"refTime":"2025-08-05T21:00:00:Z","depth":0,"parameterNumber":3,"parameterNumberName":"V-component_of_WINDS"},"data":[0,0,0,0,0,0,0,0,0,0,0,0,0,0,0,0,0,0,0,0,0,0,0,0,0,0,0,0,0,0,0,0,0,0,0,0,0,0,0,0,0,0,0,0,0,0,0,0,0,0,0,0,0,0,0,0,0,0,0.219,0.2189,0,0.2136,0.2135,0.2134,0.2171,0.2173,0.2175,0.2176,0.2114,0.2111,0.2108,0,0,0,0,0,0,0,0,0,0,0,0,0,0.2319,0.2317,0.219,0.2189,0.2188,0.2136,0.2135,0.2134,0.2171,0.2173,0.2175,0.2177,0.2115,0.2112,0.2108,0,0,0,0,0,0,0,0,0,0,0,0,0,0.2264,0.2316,0.219,0.2201,0.2201,0.2136,0.2135,0.2134,0.2171,0.2173,0.2176,0.2178,0.2117,0.2112,0.2107,0.2027,0,0,0.2092,0.209,0,0,0,0,0,0,0,0,0.2267,0.2259,0.22,0.22,0.22,0.2163,0.2158,0.2098,0.217,0.2182,0.2176,0.2179,0.2128,0.2122,0.2106,0.2024,0.2021,0.2092,0.2089,0.2087,0.2086,0,0,0,0,0,0,0,0.2271,0.2261,0.2168,0.2199,0.2199,0.2206,0.2201,0.2147,0.2141,0.2181,0.2184,0.2177,0.2129,0.2111,0.2105,0.202,0.2092,0.2088,0.2085,0.2083,0.1867,0.1864,0,0,0,0,0,0,0.2274,0.2264,0.217,0.2166,0.2241,0.2202,0.2196,0.2172,0.2142,0.214,0.2175,0.2179,0.2118,0.2111,0.2103,0.2005,0.2087,0.2083,0.208,0.1869,0.1866,0.1863,0,0,0,0,0,0,0.2277,0.2266,0.2172,0.2216,0.2205,0.2197,0.217,0.217,0.2152,0.2137,0.2136,0.2158,0.212,0.211,0.2045,0.2003,0.208,0.2076,0.1873,0.1868,0.1864,0.1808,0,0,0,0,0,0,0.2281,0.2266,0.2237,0.2215,0.2202,0.2116,0.2167,0.2167,0.2145,0.2149,0.2121,0.2119,0.2121,0.2052,0.2041,0.1998,0.2072,0.1876,0.1871,0.1866,0.1814,0.1803,0.1793,0,0,0,0,0,0.2285,0.2222,0.2235,0.2223,0.2166,0.2114,0.2106,0.2112,0.2141,0.211,0.2101,0.212,0.2011,0.2045,0.2032,0.1988,0.1879,0.1872,0.1866,0.1818,0.1805,0.1793,0,0,0,0,0,0,0.2236,0.2219,0.2233,0.2162,0.214,0.212,0.2081,0.2097,0.2064,0.2069,0.2076,0.2069,0.2001,0.1989,0.2028,0.1907,0.1949,0.194,0.1917,0.1904,0.1894,0.1897,0.2068,0,0,0,0,0,0.2218,0.218,0.2166,0.2104,0.2093,0.2089,0.2067,0.2073,0.2049,0.2039,0.2025,0.1998,0.1958,0.1931,0.1894,0.1814,0.1806,0.1777,0.1766,0.1758,0.1748,0.1703,0.1689,0.1842,0.1842,0.1842,0,0,0.2178,0.2164,0.2139,0.2094,0.2077,0.2035,0.208,0.2034,0.2002,0.2031,0.1969,0.1958,0.1929,0.1856,0.1823,0.1843,0.1705,0.175,0.1743,0.1738,0.1695,0.168,0.1667,0.1837,0.1838,0.1839,0,0,0.2083,0.207,0.2017,0.1999,0.1974,0.1972,0.196,0.1938,0.1932,0.1871,0.1892,0.1853,0.1784,0.1762,0.1742,0.1641,0.1656,0.1628,0.1573,0.1528,0.1516,0.1505,0.1466,0.1452,0.162,0.162,0.162,0,0.2036,0.1975,0.1986,0.1938,0.1917,0.1945,0.1889,0.1871,0.1833,0.1817,0.1842,0.1755,0.1738,0.1659,0.1634,0.1619,0.1602,0.163,0.1518,0.1507,0.1497,0.1459,0.1445,0.1616,0.1617,0.1617,0.1617,0,0.1917,0.1875,0.1834,0.1799,0.1774,0.1722,0.1723,0.1696,0.1705,0.17,0.1636,0.1617,0.1575,0.1558,0.1566,0.148,0.1493,0.1518,0.1559,0.1479,0.1443,0.1429,0.1611,0.1613,0.1614,0.1614,0,0,0.1787,0.1761,0.1745,0.1729,0.1704,0.167,0.162,0.1581,0.1556,0.153,0.1485,0.1427,0.145,0.1427,0.1433,0.1394,0.1312,0.1423,0.1423,0.14,0.1212,0.1191,0.1175,0.1324,0.1321,0.1319,0.1214,0,0.1688,0.1601,0.161,0.1526,0.1486,0.1512,0.1468,0.1446,0.1441,0.1404,0.1398,0.1355,0.139,0.1376,0.134,0.133,0.1273,0.1338,0.1279,0.1277,0.1282,0.1157,0.1135,0.1036,0.12,0.1198,0.1197,0,0.1561,0.1532,0.1445,0.1425,0.1409,0.1368,0.1333,0.1299,0.1275,0.1273,0.1249,0.1261,0.1208,0.1254,0.1179,0.1222,0.1199,0.1191,0.1187,0.1178,0.1229,0.1142,0.1005,0.0989,0.1176,0.1177,0.1179,0,0.1471,0.141,0.135,0.1336,0.1312,0.1283,0.1272,0.1251,0.1227,0.1196,0.1179,0.1142,0.112,0.109,0.1092,0.1126,0.1015,0.1061,0.1009,0.1009,0.0981,0.0982,0.0835,0.0972,0.0973,0.0973,0.0973,0,0.1357,0.1302,0.1309,0.1271,0.1209,0.122,0.1158,0.115,0.1131,0.109,0.1112,0.1073,0.1079,0.1039,0.104,0.0976,0.0967,0.0962,0.0962,0.0958,0.0958,0.094,0.0946,0.0969,0.097,0.0971,0.0971,0,0.1244,0.1247,0.1182,0.1167,0.1161,0.1116,0.1101,0.1065,0.1063,0.1011,0.0999,0.0994,0.0949,0.0949,0.0897,0.0897,0.0818,0.0828,0.0826,0.0827,0.0773,0.0777,0.0607,0.0584,0.0739,0.0738,0.0737,0,0.117,0.1128,0.1108,0.1084,0.1071,0.1031,0.1007,0.1017,0.099,0.096,0.0926,0.0884,0.085,0.0776,0.0766,0.0726,0.0732,0.0676,0.0726,0.0723,0.0727,0.0728,0.0723,0.0664,0.0662,0.0661,0.066,0,0.1037,0.104,0.1006,0.0972,0.0943,0.0916,0.0892,0.087,0.0876,0.0846,0.0801,0.0774,0.0722,0.0678,0.064,0.0626,0.0642,0.0645,0.063,0.0623,0.0623,0.0619,0.0795,0.0648,0.0649,0.065,0.065,0.0651,0.0938,0.0902,0.0882,0.0843,0.0826,0.0802,0.0767,0.0761,0.0724,0.0683,0.0691,0.064,0.0616,0.0567,0.055,0.0508,0.0528,0.0507,0.0501,0.0495,0.0488,0.0633,0.0502,0.0502,0.0503,0.0503,0.0503,0,0.0803,0.0792,0.0756,0.0722,0.069,0.0713,0.0687,0.0658,0.0614,0.0592,0.0558,0.0506,0.0464,0.0452,0.0411,0.038,0.0386,0.0368,0.0368,0.0364,0.0474,0.049,0.0363,0.0363,0.0363,0.0363,0.0363,0.0363,0.0728,0.0667,0.0669,0.0599,0.0588,0.054,0.0522,0.05,0.0482,0.0423,0.0389,0.0383,0.0364,0.0322,0.0283,0.0281,0.0263,0.0241,0.0241,0.0343,0.0357,0.037,0.0384,0.0238,0.0238,0.0134,0.0133,0.0132]}]]